When you browse on this site, cookies collect data to enhance your experience and personalize the content and advertising you see.
Visit our Privacy Policy to learn more. By continuing to use the site, you agree to this use of cookies and data.
  • In Austria
  • List of Countries
  • For 7 days
  • Water Temperature
  • Weather Map
  • News
  • Weather Widgets
  • user-avatar
    Login

    Hourly Weather Razgrad

    Today, 18 October, Friday

    Time Temperature Precipitation Wind Pressure Humidity
    00:00 +15°C° 0 mm 1 mps 744 mmHg 63%
    01:00 +15°C° 0 mm 1 mps 744 mmHg 64%
    02:00 +14°C° 0 mm 1 mps 744 mmHg 63%
    03:00 +13°C° 0 mm 0 mps 744 mmHg 64%
    04:00 +13°C° 0 mm 0 mps 743 mmHg 65%
    05:00 +13°C° 0 mm 0 mps 743 mmHg 65%
    06:00 +14°C° 0 mm 0 mps 743 mmHg 62%
    07:00 +15°C° 0 mm 0 mps 744 mmHg 59%
    08:00 +16°C° 0 mm 0 mps 744 mmHg 55%
    09:00 +18°C° 0 mm 0 mps 744 mmHg 48%
    10:00 +23°C° 0 mm 1 mps 744 mmHg 41%
    11:00 +25°C° 0 mm 1 mps 744 mmHg 35%
    12:00 +26°C° 0 mm 1 mps 744 mmHg 33%
    13:00 +26°C° 0 mm 1 mps 743 mmHg 31%
    14:00 +27°C° 0 mm 1 mps 743 mmHg 29%
    15:00 +26°C° 0 mm 1 mps 743 mmHg 33%
    16:00 +24°C° 0 mm 2 mps 742 mmHg 36%
    17:00 +23°C° 0 mm 2 mps 742 mmHg 40%
    18:00 +21°C° 0 mm 2 mps 742 mmHg 44%
    19:00 +20°C° 0 mm 1 mps 742 mmHg 47%
    20:00 +19°C° 0 mm 1 mps 742 mmHg 51%
    21:00 +18°C° 0 mm 1 mps 743 mmHg 54%
    22:00 +18°C° 0 mm 1 mps 743 mmHg 57%
    23:00 +16°C° 0 mm 1 mps 743 mmHg 59%

    Tomorrow, 19 October, Saturday

    Time Temperature Precipitation Wind Pressure Humidity
    00:00 +16°C° 0 mm 1 mps 743 mmHg 62%
    01:00 +16°C° 0 mm 1 mps 743 mmHg 65%
    02:00 +15°C° 0 mm 1 mps 743 mmHg 67%
    03:00 +15°C° 0 mm 1 mps 743 mmHg 68%
    04:00 +15°C° 0 mm 1 mps 743 mmHg 69%
    05:00 +15°C° 0 mm 1 mps 743 mmHg 70%
    06:00 +16°C° 0 mm 1 mps 743 mmHg 67%
    07:00 +18°C° 0 mm 1 mps 743 mmHg 63%
    08:00 +19°C° 0 mm 1 mps 744 mmHg 60%
    09:00 +21°C° 0 mm 1 mps 744 mmHg 52%
    10:00 +23°C° 0 mm 1 mps 744 mmHg 45%
    11:00 +26°C° 0 mm 1 mps 744 mmHg 37%
    12:00 +26°C° 0 mm 1 mps 744 mmHg 34%
    13:00 +27°C° 0 mm 1 mps 744 mmHg 32%
    14:00 +28°C° 0 mm 2 mps 743 mmHg 29%
    15:00 +27°C° 0 mm 2 mps 743 mmHg 33%
    16:00 +25°C° 0 mm 2 mps 743 mmHg 37%
    17:00 +24°C° 0 mm 2 mps 743 mmHg 40%
    18:00 +23°C° 0 mm 2 mps 743 mmHg 46%
    19:00 +20°C° 0 mm 2 mps 743 mmHg 53%
    20:00 +19°C° 0 mm 2 mps 743 mmHg 59%
    21:00 +18°C° 0 mm 2 mps 744 mmHg 62%
    22:00 +18°C° 0 mm 2 mps 744 mmHg 65%
    23:00 +17°C° 0 mm 2 mps 744 mmHg 67%

    Day after tomorrow, 20 October, Sunday

    Time Temperature Precipitation Wind Pressure Humidity
    00:00 +17°C° 0 mm 2 mps 744 mmHg 68%
    01:00 +16°C° 0 mm 1 mps 744 mmHg 69%
    02:00 +16°C° 0 mm 1 mps 744 mmHg 70%
    03:00 +16°C° 0 mm 1 mps 744 mmHg 70%
    04:00 +16°C° 0 mm 1 mps 744 mmHg 71%
    05:00 +15°C° 0 mm 1 mps 744 mmHg 71%
    06:00 +16°C° 0 mm 1 mps 744 mmHg 68%
    07:00 +18°C° 0 mm 1 mps 745 mmHg 64%
    08:00 +19°C° 0 mm 1 mps 745 mmHg 61%
    09:00 +21°C° 0 mm 1 mps 745 mmHg 53%
    10:00 +24°C° 0 mm 1 mps 745 mmHg 46%
    11:00 +26°C° 0 mm 1 mps 745 mmHg 39%
    12:00 +27°C° 0 mm 1 mps 745 mmHg 37%
    13:00 +27°C° 0 mm 2 mps 745 mmHg 34%
    14:00 +28°C° 0 mm 2 mps 745 mmHg 32%
    15:00 +27°C° 0 mm 2 mps 745 mmHg 36%
    16:00 +26°C° 0 mm 2 mps 745 mmHg 40%
    17:00 +24°C° 0 mm 2 mps 744 mmHg 44%
    18:00 +23°C° 0 mm 2 mps 745 mmHg 50%
    19:00 +20°C° 0 mm 2 mps 745 mmHg 57%
    20:00 +19°C° 0 mm 2 mps 745 mmHg 63%
    21:00 +18°C° 0 mm 2 mps 745 mmHg 66%
    22:00 +18°C° 0 mm 2 mps 745 mmHg 69%
    23:00 +17°C° 0 mm 2 mps 746 mmHg 71%

    21 October, Monday

    Time Temperature Precipitation Wind Pressure Humidity
    00:00 +18°C° 0 mm 1 mps 745 mmHg 72%
    01:00 +16°C° 0 mm 1 mps 745 mmHg 73%
    02:00 +16°C° 0 mm 1 mps 745 mmHg 74%
    03:00 +16°C° 0 mm 1 mps 745 mmHg 75%
    04:00 +15°C° 0 mm 1 mps 745 mmHg 75%
    05:00 +15°C° 0 mm 1 mps 745 mmHg 75%
    06:00 +16°C° 0 mm 1 mps 745 mmHg 71%
    07:00 +18°C° 0 mm 1 mps 746 mmHg 67%
    08:00 +19°C° 0 mm 1 mps 746 mmHg 63%
    09:00 +21°C° 0 mm 1 mps 746 mmHg 54%
    10:00 +24°C° 0 mm 1 mps 746 mmHg 45%
    11:00 +26°C° 0 mm 1 mps 746 mmHg 36%
    12:00 +27°C° 0 mm 1 mps 746 mmHg 34%
    13:00 +27°C° 0 mm 1 mps 746 mmHg 31%
    14:00 +28°C° 0 mm 2 mps 746 mmHg 29%
    15:00 +27°C° 0 mm 2 mps 746 mmHg 32%
    16:00 +25°C° 0 mm 2 mps 745 mmHg 35%
    17:00 +24°C° 0 mm 2 mps 745 mmHg 38%
    18:00 +21°C° 0 mm 2 mps 745 mmHg 42%
    19:00 +21°C° 0 mm 1 mps 745 mmHg 46%
    20:00 +20°C° 0 mm 1 mps 745 mmHg 50%
    21:00 +19°C° 0 mm 1 mps 745 mmHg 52%
    22:00 +19°C° 0 mm 1 mps 745 mmHg 54%
    23:00 +18°C° 0 mm 1 mps 746 mmHg 56%

    22 October, Tuesday

    Time Temperature Precipitation Wind Pressure Humidity
    00:00 +18°C° 0 mm 1 mps 745 mmHg 57%
    01:00 +16°C° 0 mm 1 mps 745 mmHg 58%
    02:00 +16°C° 0 mm 1 mps 745 mmHg 59%
    03:00 +16°C° 0 mm 1 mps 745 mmHg 59%
    04:00 +15°C° 0 mm 0 mps 745 mmHg 59%
    05:00 +14°C° 0 mm 0 mps 745 mmHg 60%
    06:00 +15°C° 0 mm 0 mps 745 mmHg 57%
    07:00 +16°C° 0 mm 0 mps 746 mmHg 55%
    08:00 +17°C° 0 mm 0 mps 746 mmHg 52%
    09:00 +21°C° 0 mm 1 mps 746 mmHg 47%
    10:00 +23°C° 0 mm 1 mps 746 mmHg 42%
    11:00 +26°C° 0 mm 1 mps 746 mmHg 37%
    12:00 +26°C° 0 mm 1 mps 746 mmHg 35%
    13:00 +27°C° 0 mm 1 mps 745 mmHg 34%
    14:00 +28°C° 0 mm 2 mps 745 mmHg 32%
    15:00 +26°C° 0 mm 2 mps 745 mmHg 35%
    16:00 +25°C° 0 mm 2 mps 745 mmHg 39%
    17:00 +24°C° 0 mm 2 mps 745 mmHg 42%
    18:00 +23°C° 0 mm 1 mps 745 mmHg 46%
    19:00 +21°C° 0 mm 1 mps 745 mmHg 50%
    20:00 +20°C° 0 mm 1 mps 745 mmHg 54%
    21:00 +19°C° 0 mm 1 mps 745 mmHg 56%
    22:00 +19°C° 0 mm 1 mps 746 mmHg 58%
    23:00 +16°C° 0 mm 0 mps 746 mmHg 60%

    23 October, Wednesday

    Time Temperature Precipitation Wind Pressure Humidity
    00:00 +16°C° 0 mm 0 mps 746 mmHg 61%
    01:00 +15°C° 0 mm 0 mps 746 mmHg 63%
    02:00 +15°C° 0 mm 0 mps 746 mmHg 64%
    03:00 +16°C° 0 mm 1 mps 746 mmHg 65%
    04:00 +15°C° 0 mm 1 mps 746 mmHg 67%
    05:00 +15°C° 0 mm 1 mps 746 mmHg 68%
    06:00 +15°C° 0 mm 1 mps 746 mmHg 67%
    07:00 +16°C° 0 mm 1 mps 747 mmHg 66%
    08:00 +16°C° 0 mm 1 mps 747 mmHg 65%
    09:00 +18°C° 0 mm 2 mps 747 mmHg 60%
    10:00 +20°C° 0 mm 2 mps 747 mmHg 54%
    11:00 +22°C° 0 mm 3 mps 747 mmHg 49%
    12:00 +24°C° 0 mm 3 mps 747 mmHg 47%
    13:00 +24°C° 0 mm 3 mps 746 mmHg 45%
    14:00 +25°C° 0 mm 3 mps 746 mmHg 44%
    15:00 +24°C° 0 mm 3 mps 746 mmHg 48%
    16:00 +22°C° 0 mm 3 mps 746 mmHg 52%
    17:00 +21°C° 0 mm 3 mps 746 mmHg 56%
    18:00 +19°C° 0 mm 3 mps 746 mmHg 61%
    19:00 +18°C° 0 mm 2 mps 746 mmHg 66%
    20:00 +17°C° 0 mm 2 mps 746 mmHg 71%
    21:00 +16°C° 0 mm 2 mps 746 mmHg 75%
    22:00 +16°C° 0 mm 2 mps 747 mmHg 79%
    23:00 +15°C° 0 mm 2 mps 747 mmHg 83%
    Show more